Spokane Fairchild, WA
on Monday, December 17, 2012

Monday
Previous Day Next Day
Daily Summary
 ActualAverage (KGEG)Record (KGEG)
Temperature
Mean Temperature °F 27°F  
Max Temperature 37°F 32°F 53°F (1917)
Min Temperature 24°F 22°F -20°F (1964)
Degree Days
Heating Degree Days 34 38  
Month to date heating degree days 629  
Since 1 July heating degree days 2296  
Cooling Degree Days 0 0  
Month to date cooling degree days 0  
Year to date cooling degree days 450  
Moisture
Dew Point 34°F   
Average Humidity 100    
Maximum Humidity 100    
Minimum Humidity 89    
Precipitation
Precipitation 1.19 in 0.07 in 0.74 in (2008)
Month to date precipitation 1.33  
Year to date precipitation 15.59  
Snow
Snow 0.00 in 0.40 in 12.50 in (2008)
Month to date snowfall 7.3  
Since 1 July snowfall 14.8  
Snow Depth 4.00 in   
Wind
Wind Speed 21 mph   
Max Wind Speed 39 mph   
Max Gust Speed 50 mph   
Visibility 10 miles   
Events Rain , Snow   

Key: T is trace of precipitation, MM is missing value
Source: NWS Daily Summary
Time(PST)TemperatureDew PointHumidity Pressure Visibility Wind DirectionWind SpeedGust SpeedPrecipitationEvents Conditions
12:03 AM 32.0°F 32.0°F 100% 29.15 in 8.0 miles SSE 15.0 mph 21.9 mph N/A Rain Light Rain
12:18 AM 32.0°F 32.0°F 100% 29.14 in 10.0 miles SSE 18.4 mph - N/A Rain Light Rain
12:48 AM 33.8°F 33.8°F 100% 29.15 in 10.0 miles South 16.1 mph - N/A Rain Light Rain
12:53 AM 33.8°F 33.8°F 100% 29.15 in 10.0 miles South 17.3 mph - N/A Rain Light Rain
12:58 AM 34.0°F 34.0°F 100% 29.20 in 10.0 miles South 18.4 mph - 0.00 in Snow Light Snow
1:46 AM 35.6°F 35.6°F 100% 29.15 in 10.0 miles South 16.1 mph - N/A   Mostly Cloudy
1:50 AM 35.6°F 35.6°F 100% 29.15 in 10.0 miles South 16.1 mph - N/A Rain Light Rain
1:58 AM 36.0°F 36.0°F 100% 29.20 in 10.0 miles South 15.0 mph - 0.00 in Snow Light Snow
2:17 AM 35.6°F 35.6°F 100% 29.15 in 10.0 miles South 13.8 mph - N/A Rain Light Rain
2:22 AM 35.6°F 35.6°F 100% 29.14 in 9.0 miles South 12.7 mph - N/A Rain Rain
2:32 AM 35.6°F 35.6°F 100% 29.14 in 9.0 miles South 13.8 mph - N/A Rain Light Rain
2:37 AM 35.6°F 35.6°F 100% 29.13 in 10.0 miles South 13.8 mph - N/A Rain Light Rain
2:42 AM 35.6°F 35.6°F 100% 29.13 in 10.0 miles South 13.8 mph - N/A Rain Light Rain
2:58 AM 36.0°F 36.0°F 100% 29.18 in 10.0 miles South 15.0 mph - 0.03 in Rain Light Rain
3:03 AM 35.6°F 35.6°F 100% 29.13 in 10.0 miles South 18.4 mph 26.5 mph N/A Rain Light Rain
3:23 AM 37.4°F 37.4°F 100% 29.13 in 10.0 miles South 19.6 mph - N/A Rain Light Rain
3:58 AM 37.6°F 37.6°F 100% 29.18 in 10.0 miles SSW 23.0 mph 31.1 mph 0.00 in Snow Light Snow
4:03 AM 37.4°F 37.4°F 100% 29.13 in 10.0 miles SSW 20.7 mph 31.1 mph N/A Snow Light Snow
4:23 AM 37.4°F 37.4°F 100% 29.12 in 10.0 miles SSW 26.5 mph 35.7 mph N/A Snow Light Snow
4:38 AM 37.4°F 37.4°F 100% 29.12 in 10.0 miles SSW 23.0 mph 32.2 mph N/A Snow Light Snow
4:43 AM 37.4°F 37.4°F 100% 29.11 in 10.0 miles South 26.5 mph 34.5 mph N/A Snow Light Snow
4:48 AM 37.4°F 37.4°F 100% 29.12 in 10.0 miles SSW 27.6 mph 34.5 mph N/A Snow Light Snow
4:58 AM 37.6°F 37.6°F 100% 29.17 in 10.0 miles South 25.3 mph 36.8 mph 0.02 in Snow Light Snow
5:58 AM 37.2°F 37.2°F 100% 29.16 in 10.0 miles SSW 26.5 mph 38.0 mph 0.00 in Snow Light Snow
6:58 AM 36.7°F 36.7°F 100% 29.18 in 10.0 miles SSW 27.6 mph 38.0 mph 0.08 in Snow Light Snow
7:38 AM 35.6°F 35.6°F 100% 29.15 in 10.0 miles SSW 27.6 mph 46.0 mph N/A Snow Light Snow
7:58 AM 35.6°F 35.6°F 100% 29.22 in 10.0 miles SSW 28.8 mph 42.6 mph 0.07 in Snow Light Snow
8:03 AM 35.6°F 35.6°F 100% 29.17 in 10.0 miles SSW 27.6 mph 42.6 mph N/A Snow Light Snow
8:13 AM 35.6°F 35.6°F 100% 29.18 in 10.0 miles SSW 32.2 mph 41.4 mph N/A Snow Light Snow
8:23 AM 35.6°F 35.6°F 100% 29.20 in 10.0 miles SSW 29.9 mph 40.3 mph N/A Snow Light Snow
8:58 AM 34.7°F 34.7°F 100% 29.26 in 10.0 miles SSW 39.1 mph 47.2 mph 0.18 in Snow Light Snow
9:28 AM 35.6°F 35.6°F 100% 29.25 in 10.0 miles SSW 33.4 mph 47.2 mph N/A Snow Light Snow
9:33 AM 35.6°F 35.6°F 100% 29.25 in 10.0 miles SSW 34.5 mph 47.2 mph N/A Snow Light Snow
9:38 AM 35.6°F 35.6°F 100% 29.26 in 10.0 miles SSW 33.4 mph 47.2 mph N/A Snow Light Snow
9:58 AM 34.9°F 34.9°F 100% 29.33 in 10.0 miles SSW 34.5 mph 49.5 mph 0.52 in Snow Light Snow
10:13 AM 35.6°F 35.6°F 100% 29.30 in 10.0 miles SSW 35.7 mph 46.0 mph N/A Snow Light Snow
10:18 AM 35.6°F 35.6°F 100% 29.30 in 10.0 miles SSW 29.9 mph 46.0 mph N/A Snow Light Snow
10:33 AM 35.6°F 35.6°F 100% 29.31 in 10.0 miles SSW 29.9 mph 42.6 mph N/A Snow Light Snow
10:38 AM 35.6°F 35.6°F 100% 29.31 in 10.0 miles SSW 29.9 mph 42.6 mph N/A Snow Light Snow
10:43 AM 35.6°F 35.6°F 100% 29.32 in 10.0 miles SSW 27.6 mph 41.4 mph N/A Snow Light Snow
10:53 AM 33.8°F 33.8°F 100% 29.32 in 10.0 miles SSW 31.1 mph 42.6 mph N/A Snow Light Snow
10:58 AM 34.5°F 34.5°F 100% 29.39 in 10.0 miles SSW 32.2 mph 42.6 mph 0.14 in Snow Light Snow
11:33 AM 35.6°F 35.6°F 100% 29.35 in 10.0 miles SSW 32.2 mph 40.3 mph N/A Snow Light Snow
11:38 AM 35.6°F 35.6°F 100% 29.35 in 10.0 miles SSW 32.2 mph 43.7 mph N/A Snow Light Snow
11:58 AM 34.7°F 34.7°F 100% 29.42 in 10.0 miles SSW 28.8 mph 38.0 mph 0.15 in Snow Light Snow
12:58 PM 35.6°F 35.6°F 100% 29.44 in 10.0 miles SW 24.2 mph 34.5 mph 0.00 in Snow Light Snow
1:58 PM 36.5°F 36.5°F 100% 29.49 in 10.0 miles SSW 26.5 mph 32.2 mph 0.00 in Snow Light Snow
4:58 PM 34.0°F 30.9°F 89% 29.62 in 10.0 miles SW 25.3 mph 29.9 mph 0.00 in Snow Light Snow
5:58 PM 33.1°F 30.0°F 89% 29.65 in 10.0 miles SW 19.6 mph 31.1 mph 0.00 in Snow Light Snow
6:58 PM 31.1°F 29.8°F 95% 29.67 in 10.0 miles SW 21.9 mph 31.1 mph 0.00 in Snow Light Snow
7:58 PM 29.5°F 29.3°F 99% 29.69 in 10.0 miles SW 19.6 mph 25.3 mph 0.00 in Snow Light Snow
8:58 PM 27.9°F 27.9°F 100% 29.74 in 10.0 miles SW 19.6 mph 27.6 mph 0.00 in Snow Light Snow
9:58 PM 27.3°F 27.3°F 100% 29.78 in 10.0 miles SW 16.1 mph - 0.00 in   Overcast
9:59 PM 26.6°F 26.6°F 100% 29.71 in 10.0 miles SW 18.4 mph - N/A   Freezing Rain
10:58 PM 26.4°F 26.4°F 100% 29.81 in 10.0 miles SSW 16.1 mph - 0.00 in   Freezing Rain
11:28 PM 26.6°F 26.6°F 100% 29.73 in 10.0 miles SSW 15.0 mph 21.9 mph N/A   Mostly Cloudy
11:40 PM 24.8°F 24.8°F 100% 29.73 in 10.0 miles SSW 12.7 mph - N/A   Freezing Rain
11:50 PM 24.8°F 24.8°F 100% 29.74 in 10.0 miles SSW 13.8 mph - N/A   Scattered Clouds
11:58 PM 25.3°F 25.3°F 100% 29.82 in 10.0 miles SSW 13.8 mph - 0.00 in   Scattered Clouds
Moon Phase
Dec. 17 Dec. 20 Dec. 28 Jan. 04 Jan. 11
Sunrise:07:34 AM (PST) Moon Rise:10:26 AM (PST)12/17
Sunset:04:00 PM (PST) Moon Set:09:47 PM (PST)12/17

Copyright © 2014 The Weather Underground, Inc.